Location: Wyoming Infrared Observatory
(41.0971°N, 105.9765°W)
Time: 16:50:48
(UTC-06:00)

Amateur Radio Satellites - All Passes

Search period start: 25 October 2014 16:20
Search period end: 26 October 2014 16:20
Location: Wyoming Infrared Observatory, 41.0971°N, 105.9765°W

Satellite Date Start Highest point End Downlink Frequencies (MHz)
Time Altitude Azimuth
ISS 25 Oct 16:46:33 16:48:30 14° 8° (N) 16:50:26 145.800 FM
KITSAT 1 25 Oct 16:49:41 16:51:33 11° 352° (N) 16:53:26 435.175 FM
JAS-2 25 Oct 16:54:07 16:59:30 35° 64° (ENE) 17:05:32 435.800 - 435.900 CW/SSB, 435.910 FM
Hamsat 25 Oct 16:54:24 16:56:41 15° 65° (ENE) 16:58:58 145.90 MHz
Saudisat 1A 25 Oct 16:54:46 16:59:09 63° 241° (WSW) 17:03:30 436.775 MHz
Uosat F 25 Oct 17:53:36 17:57:08 19° 267° (W) 18:00:41 435.120 FM
OPAL 25 Oct 17:58:01 18:02:40 39° 100° (E) 18:07:17 ?
AO-7 25 Oct 18:07:40 18:13:41 22° 268° (W) 18:19:46 29.400 - 29.500 MHz
ISS 25 Oct 18:22:50 18:25:56 34° 27° (NNE) 18:29:02 145.800 FM
Hamsat 25 Oct 18:28:08 18:32:13 49° 261° (W) 18:36:18 145.90 MHz
JAS-2 25 Oct 18:38:58 18:44:27 39° 265° (W) 18:50:39 435.800 - 435.900 CW/SSB, 435.910 FM
KITSAT 1 25 Oct 18:46:54 18:51:20 15° 24° (NNE) 18:55:46 435.175 FM
SO-67 25 Oct 19:03:47 19:07:04 46° 74° (ENE) 19:10:24 435.3500 MHz FM
OPAL 25 Oct 19:37:22 19:41:20 25° 297° (WNW) 19:45:16 ?
STRAND 1 25 Oct 19:43:41 19:48:46 56° 101° (E) 19:53:48 ?
HO-68 25 Oct 19:48:15 19:53:55 26° 59° (ENE) 19:59:36 435.675 MHz FM
ISS 25 Oct 19:59:36 20:02:36 31° 224° (SW) 20:05:35 145.800 FM
KITSAT 1 25 Oct 20:41:23 20:49:07 46° 50° (NE) 20:56:48 435.175 FM
Oscar 11 25 Oct 20:48:28 20:50:55 15° 64° (ENE) 20:53:22 145.825 FM, Beacon 2401.500 USB
SO-50 25 Oct 21:03:20 21:07:43 33° 48° (NE) 21:12:08 436.795 FM
RS-15 25 Oct 21:12:12 21:21:26 32° 105° (ESE) 21:30:32 29.354 - 29.394 USB, Beacon 29.352 USB
STRAND 1 25 Oct 21:23:58 21:27:30 19° 298° (WNW) 21:31:01 ?
HO-68 25 Oct 21:33:59 21:41:03 64° 257° (WSW) 21:48:13 435.675 MHz FM
ZACube-1 25 Oct 21:39:22 21:43:00 24° 68° (ENE) 21:46:35 437.345 MHz
UKube-1 25 Oct 21:41:43 21:46:01 63° 74° (ENE) 21:50:20 145.840 MHz, 145.915 MHz
UOSAT-12 25 Oct 22:21:44 22:25:22 21° 43° (NE) 22:28:57 437.025 FM, 437.400 FM
Oscar 11 25 Oct 22:22:28 22:26:40 51° 260° (W) 22:30:54 145.825 FM, Beacon 2401.500 USB
FUNcube-1 25 Oct 22:22:45 22:27:18 66° 75° (ENE) 22:31:47 145.950 - 145.970 MHz USB
KITSAT 1 25 Oct 22:36:58 22:44:27 43° 250° (WSW) 22:51:54 435.175 FM
SO-50 25 Oct 22:43:55 22:48:16 33° 246° (WSW) 22:52:37 436.795 FM
ZACube-1 25 Oct 23:15:02 23:19:12 34° 263° (W) 23:23:20 437.345 MHz
Oscar 10/S400 25 Oct 23:16:16 00:16:14 38° 222° (SW) 05:26:59 145.825 - 145.975 CW/USB, Beacon 145.810 USB
UKube-1 25 Oct 23:21:11 23:22:36 11° 270° (W) 23:24:02 145.840 MHz, 145.915 MHz
RS-15 25 Oct 23:21:55 23:32:52 70° 307° (NW) 23:43:49 29.354 - 29.394 USB, Beacon 29.352 USB
MaSat-1 25 Oct 23:46:39 23:50:47 73° 114° (ESE) 23:54:30 437.345 MHz
UOSAT-12 26 Oct 00:01:14 00:05:51 56° 242° (WSW) 00:10:22 437.025 FM, 437.400 FM
FUNcube-1 26 Oct 00:02:21 00:04:04 12° 270° (W) 00:05:45 145.950 - 145.970 MHz USB
Oscar 16 26 Oct 01:14:07 01:15:12 11° 88° (E) 01:16:17 437.025 USB, Beacon 2401.1428
MaSat-1 26 Oct 01:25:41 01:26:40 11° 308° (NW) 01:27:38 437.345 MHz
RS-15 26 Oct 01:38:58 01:47:40 26° 335° (NNW) 01:56:30 29.354 - 29.394 USB, Beacon 29.352 USB
JAS-1B 26 Oct 02:03:50 02:10:09 38° 99° (E) 02:17:32 435.800 - 435.900 CW/SSB
Oscar 19 26 Oct 02:04:21 02:09:00 34° 97° (E) 02:13:38 437.125 CW, 437.150 USB
AO-27 26 Oct 02:25:46 02:29:51 23° 94° (E) 02:33:54 436.795 MHz FM
AO-Echo 26 Oct 02:34:55 02:39:51 37° 97° (E) 02:44:44 ?
Oscar 16 26 Oct 02:50:02 02:55:11 85° 285° (WNW) 03:00:18 437.025 USB, Beacon 2401.1428
Sapphire 26 Oct 02:54:13 02:58:02 20° 106° (ESE) 03:01:51 437.095 MHz 1200 baud AX-25 AFSK
Uribyol 2 26 Oct 03:11:59 03:17:10 65° 102° (ESE) 03:22:19 436.500 FM
PCSat 26 Oct 03:15:24 03:20:12 33° 110° (ESE) 03:25:01 145.825 MHz
ITAMSAT 1 26 Oct 03:18:20 03:23:34 70° 102° (ESE) 03:28:45 435.822 SSB
Oscar 19 26 Oct 03:43:53 03:48:13 28° 293° (WNW) 03:52:32 437.125 CW, 437.150 USB
Gurwin Techsat 1B 26 Oct 03:45:58 03:51:17 68° 102° (ESE) 03:56:33 435.225 FM
JAS-1B 26 Oct 03:54:32 04:00:45 42° 292° (WNW) 04:08:03 435.800 - 435.900 CW/SSB
TMSAT-1 26 Oct 03:56:20 04:01:37 63° 101° (ESE) 04:06:51 436.925 FM
RS-15 26 Oct 03:57:29 04:05:22 21° 12° (NNE) 04:13:22 29.354 - 29.394 USB, Beacon 29.352 USB
AO-27 26 Oct 04:04:35 04:09:32 44° 290° (WNW) 04:14:27 436.795 MHz FM
AO-Echo 26 Oct 04:13:56 04:18:26 29° 294° (WNW) 04:22:55 ?
AO-7 26 Oct 04:14:29 04:21:05 25° 94° (E) 04:27:37 29.400 - 29.500 MHz
Uosat F 26 Oct 04:22:29 04:25:21 15° 91° (E) 04:28:12 435.120 FM
Oscar 16 26 Oct 04:32:17 04:33:43 11° 302° (WNW) 04:35:09 437.025 USB, Beacon 2401.1428
Sapphire 26 Oct 04:35:40 04:40:58 57° 303° (WNW) 04:46:20 437.095 MHz 1200 baud AX-25 AFSK
Uribyol 2 26 Oct 04:52:52 04:56:05 17° 299° (WNW) 04:59:18 436.500 FM
PCSat 26 Oct 04:58:35 05:03:32 36° 308° (NW) 05:08:32 145.825 MHz
ITAMSAT 1 26 Oct 04:59:24 05:02:27 16° 300° (WNW) 05:05:29 435.822 SSB
OPAL 26 Oct 05:12:37 05:17:45 73° 72° (ENE) 05:22:50 ?
STRAND 1 26 Oct 05:25:17 05:26:15 11° 57° (ENE) 05:27:14 ?
Gurwin Techsat 1B 26 Oct 05:27:25 05:30:40 17° 299° (WNW) 05:33:55 435.225 FM
TMSAT-1 26 Oct 05:37:33 05:41:00 18° 298° (WNW) 05:44:26 436.925 FM
JAS-2 26 Oct 05:47:05 05:54:14 37° 95° (E) 06:01:16 435.800 - 435.900 CW/SSB, 435.910 FM
Uosat F 26 Oct 05:59:33 06:04:33 62° 287° (WNW) 06:09:30 435.120 FM
AO-7 26 Oct 06:06:12 06:14:28 70° 292° (WNW) 06:22:43 29.400 - 29.500 MHz
RS-15 26 Oct 06:10:58 06:21:34 46° 44° (NE) 06:32:32 29.354 - 29.394 USB, Beacon 29.352 USB
Hamsat 26 Oct 06:13:59 06:17:35 27° 96° (E) 06:21:11 145.90 MHz
Sapphire 26 Oct 06:23:52 06:25:37 11° 324° (NW) 06:27:23 437.095 MHz 1200 baud AX-25 AFSK
OPAL 26 Oct 06:54:43 06:57:06 13° 268° (W) 06:59:29 ?
STRAND 1 26 Oct 06:59:26 07:04:34 80° 75° (ENE) 07:09:44 ?
Saudisat 1A 26 Oct 07:01:11 07:05:07 33° 115° (ESE) 07:09:05 436.775 MHz
JAS-2 26 Oct 07:31:52 07:39:17 50° 292° (WNW) 07:46:41 435.800 - 435.900 CW/SSB, 435.910 FM
Hamsat 26 Oct 07:50:00 07:53:26 25° 291° (WNW) 07:56:52 145.90 MHz
SO-67 26 Oct 07:59:45 08:03:09 57° 100° (E) 08:06:32 435.3500 MHz FM
AO-7 26 Oct 08:01:06 08:05:48 17° 312° (NW) 08:10:30 29.400 - 29.500 MHz
AO-40 26 Oct 08:03:11 23:42:09 43° 183° (S) 08:33:02 Beacon 2401.320
RS-15 26 Oct 08:23:27 08:34:17 59° 247° (WSW) 08:45:37 29.354 - 29.394 USB, Beacon 29.352 USB
PANSAT 26 Oct 08:34:40 08:36:18 12° 179° (S) 08:37:55 not established
Saudisat 1A 26 Oct 08:40:54 08:44:42 28° 313° (NW) 08:48:31 436.775 MHz
STRAND 1 26 Oct 08:42:33 08:44:20 12° 271° (W) 08:46:09 ?
HO-68 26 Oct 09:02:31 09:08:15 25° 94° (E) 09:13:57 435.675 MHz FM
JAS-2 26 Oct 09:21:23 09:22:32 10° 311° (NW) 09:23:41 435.800 - 435.900 CW/SSB, 435.910 FM
MaSat-1 26 Oct 09:32:46 09:35:15 46° 248° (WSW) 09:37:33 437.345 MHz
UKube-1 26 Oct 09:32:46 09:33:42 11° 90° (E) 09:34:37 145.840 MHz, 145.915 MHz
Oscar 10/S400 26 Oct 09:52:29 10:01:20 11° 159° (SSE) 10:08:01 145.825 - 145.975 CW/USB, Beacon 145.810 USB
Oscar 11 26 Oct 10:10:24 10:14:06 27° 96° (E) 10:17:47 145.825 FM, Beacon 2401.500 USB
FUNcube-1 26 Oct 10:14:17 10:15:51 12° 90° (E) 10:17:24 145.950 - 145.970 MHz USB
HO-68 26 Oct 10:49:18 10:56:22 62° 291° (WNW) 11:03:25 435.675 MHz FM
ZACube-1 26 Oct 11:04:08 11:08:13 45° 99° (E) 11:12:12 437.345 MHz
UKube-1 26 Oct 11:05:58 11:10:19 68° 286° (WNW) 11:14:38 145.840 MHz, 145.915 MHz
KITSAT 1 26 Oct 11:10:36 11:17:17 30° 106° (ESE) 11:23:58 435.175 FM
Sapphire 26 Oct 11:41:12 11:45:05 20° 44° (NE) 11:48:57 437.095 MHz 1200 baud AX-25 AFSK
Oscar 11 26 Oct 11:46:37 11:50:11 26° 292° (WNW) 11:53:44 145.825 FM, Beacon 2401.500 USB
FUNcube-1 26 Oct 11:48:27 11:52:37 55° 286° (WNW) 11:56:40 145.950 - 145.970 MHz USB
PCSat 26 Oct 12:03:05 12:07:47 29° 50° (NE) 12:12:28 145.825 MHz
Oscar 16 26 Oct 12:29:51 12:33:14 18° 62° (ENE) 12:36:36 437.025 USB, Beacon 2401.1428
HO-68 26 Oct 12:40:02 12:42:39 12° 311° (NW) 12:45:16 435.675 MHz FM
ISS 26 Oct 12:40:59 12:44:18 87° 146° (SE) 12:47:39 145.800 FM
ZACube-1 26 Oct 12:41:40 12:44:14 16° 296° (WNW) 12:46:46 437.345 MHz
JAS-1B 26 Oct 12:51:40 12:56:22 26° 64° (ENE) 13:00:57 435.800 - 435.900 CW/SSB
Uribyol 2 26 Oct 12:53:52 12:56:13 13° 59° (ENE) 12:58:34 436.500 FM
SO-50 26 Oct 12:58:06 13:02:35 85° 122° (ESE) 13:07:14 436.795 FM
ITAMSAT 1 26 Oct 13:00:02 13:02:40 14° 59° (ENE) 13:05:18 435.822 SSB
KITSAT 1 26 Oct 13:04:08 13:12:08 63° 305° (NW) 13:20:10 435.175 FM
Oscar 19 26 Oct 13:21:02 13:26:00 50° 71° (ENE) 13:30:57 437.125 CW, 437.150 USB
Sapphire 26 Oct 13:23:39 13:29:05 74° 244° (WSW) 13:34:29 437.095 MHz 1200 baud AX-25 AFSK
Gurwin Techsat 1B 26 Oct 13:30:19 13:33:03 14° 60° (ENE) 13:35:48 435.225 FM
TMSAT-1 26 Oct 13:40:46 13:43:09 13° 59° (ENE) 13:45:32 436.925 FM
AO-27 26 Oct 13:43:40 13:48:20 35° 68° (ENE) 13:53:03 436.795 MHz FM
PCSat 26 Oct 13:46:14 13:51:21 44° 248° (WSW) 13:56:26 145.825 MHz
AO-Echo 26 Oct 13:47:46 13:52:26 45° 70° (ENE) 13:57:16 ?
Oscar 16 26 Oct 14:07:00 14:12:05 60° 259° (W) 14:17:12 437.025 USB, Beacon 2401.1428
UOSAT-12 26 Oct 14:12:03 14:16:26 45° 117° (ESE) 14:20:56 437.025 FM, 437.400 FM
ISS 26 Oct 14:18:47 14:21:21 20° 342° (NNW) 14:23:56 145.800 FM
Uribyol 2 26 Oct 14:29:43 14:34:56 85° 256° (WSW) 14:40:13 436.500 FM
ITAMSAT 1 26 Oct 14:36:15 14:41:28 79° 257° (WSW) 14:46:43 435.822 SSB
SO-50 26 Oct 14:41:05 14:43:48 15° 322° (NW) 14:46:33 436.795 FM
JAS-1B 26 Oct 14:41:20 14:46:54 41° 261° (W) 14:52:14 435.800 - 435.900 CW/SSB
Oscar 19 26 Oct 15:01:57 15:05:36 19° 267° (W) 15:09:15 437.125 CW, 437.150 USB
KITSAT 1 26 Oct 15:03:52 15:09:18 19° 329° (NNW) 15:14:47 435.175 FM
Gurwin Techsat 1B 26 Oct 15:07:01 15:12:19 79° 257° (WSW) 15:17:40 435.225 FM
AO-7 26 Oct 15:13:25 15:20:42 36° 59° (ENE) 15:28:01 29.400 - 29.500 MHz
TMSAT-1 26 Oct 15:17:00 15:22:18 86° 256° (WSW) 15:27:39 436.925 FM
AO-27 26 Oct 15:23:23 15:27:51 29° 264° (W) 15:32:23 436.795 MHz FM
Saudisat 1A 26 Oct 15:27:41 15:31:34 29° 48° (NE) 15:35:25 436.775 MHz
AO-Echo 26 Oct 15:27:50 15:31:27 20° 268° (W) 15:35:09 ?
Uosat F 26 Oct 15:35:26 15:39:14 22° 64° (ENE) 15:43:04 435.120 FM
UOSAT-12 26 Oct 15:52:57 15:56:47 25° 315° (NW) 16:00:41 437.025 FM, 437.400 FM
ISS 26 Oct 15:57:14 15:59:01 14° 2° (N) 16:00:47 145.800 FM
JAS-2 26 Oct 16:02:09 16:05:28 15° 53° (NE) 16:08:58 435.800 - 435.900 CW/SSB, 435.910 FM
